Flag for Brazil Weather past 2 weeks in Itumbiara, Goiás, Brazil

Now
70 °F

Passing clouds.


Feels Like: 70 °F
Forecast: 71 / 87 °F
Wind: 7 mph from East

Location: Uberlandia Airport

Current Time: Mar 29, 2015 at 6:43:35 AM

Latest Report: Mar 29, 2015 at 6:00 AM


Visibility: N/A

Pressure: 30.09 "Hg

Humidity: 83%

Dew point: 64 °F

Location of ItumbiaraLocation

Historic Weather in Itumbiara — Graph

°F

Itumbiara temperature yesterday

Maximum temperature yesterday: 86 °F (at 2:00 PM)
Minimum temperature yesterday: 66 °F (at 12:00 AM)
Average temperature yesterday: 75 °F

Past Weeks' High & Low Weather Summary

 TemperatureHumidityPressure
High86 °F (Mar 28, 2:00 PM)100% (Mar 17, 6:00 AM)30.21 "Hg (Mar 17, 6:00 AM)
Low63 °F (Mar 20, 3:00 AM)43% (Mar 28, 4:00 PM)29.92 "Hg (Mar 21, 4:00 PM)
Average71 °F81%30.07 "Hg
* Reported Mar 14 5:00 AM — Mar 29 5:00 AM, Itumbiara, Weather by CustomWeather, © 2015

Note: Actual official high and low records may vary slightly from our data, if they occured in-between our weather recording intervals... More about our weather records

Advertising

Itumbiara weather history for previous 24 hours

 ConditionsComfort  
Time TempWeatherWind HumidityBarometerVisibility
5:00 AM
Sun, Mar 29
72 °FClear.8 mph78%30.07 "Hg10 mi
4:00 AM72 °FPassing clouds.8 mph78%30.07 "HgN/A
3:00 AM72 °FClear.8 mph78%30.07 "Hg10 mi
2:00 AM72 °FClear.8 mph78%30.09 "Hg10 mi
1:00 AM73 °FClear.7 mph74%30.09 "Hg10 mi
12:00 AM73 °FClear.7 mph74%30.12 "Hg10 mi
11:00 PM
Sat, Mar 28
73 °FClear.6 mph74%30.12 "Hg10 mi
10:00 PM73 °FClear.6 mph74%30.12 "Hg10 mi
9:00 PM73 °FClear.6 mph78%30.09 "Hg10 mi
8:00 PM77 °FPassing clouds.5 mph65%30.09 "HgN/A
7:00 PM79 °FPassing clouds.5 mph61%30.09 "HgN/A
6:00 PM82 °FPassing clouds.5 mph51%30.07 "HgN/A
5:00 PM84 °FPassing clouds.7 mph48%30.07 "HgN/A
4:00 PM86 °FScattered clouds.5 mph43%30.09 "HgN/A
3:00 PM84 °FScattered clouds.7 mph45%30.09 "HgN/A
2:00 PM86 °FScattered clouds.8 mph49%30.12 "HgN/A
1:00 PM84 °FScattered clouds.5 mph48%30.15 "HgN/A
12:00 PM82 °FPassing clouds.5 mph51%30.18 "HgN/A
11:00 AM82 °FPassing clouds.5 mph51%30.18 "HgN/A
10:00 AM79 °FSunny.7 mph65%30.21 "Hg10 mi
9:00 AM77 °FSunny.7 mph74%30.21 "Hg10 mi
8:00 AM72 °FSunny.7 mph83%30.18 "Hg10 mi
7:00 AM68 °FSunny.8 mph88%30.18 "Hg10 mi
6:00 AM66 °FClear.7 mph94%30.15 "Hg10 mi
Weather by CustomWeather, © 2015

See weather overviewHow to use our weather pages